Weather Roundup
Issued by NWS Chicago, IL

Home | Current Version | Previous Version | Text Only | Print | Product List | Glossary On
Versions: 1 2 3 4 5 6 7 8 9 10 11 12 13 14 15 16 17 18 19 20 21 22 23 24 25 26 27 28 29 30 31 32 33 34 35 36 37 38 39 40 41 42 43 44 45 46 47 48 49 50
000
NZUS59 KLOT 250021
HRRLOT

CHICAGO AREA WEATHER ROUNDUP
NATIONAL WEATHER SERVICE CHICAGO/ROMEOVILLE IL
700 PM CDT FRI APR 24 2015

NOTE: "FAIR" INDICATES FEW OR NO CLOUDS BELOW 12,000 FEET WITH NO
SIGNIFICANT WEATHER AND/OR OBSTRUCTIONS TO VISIBILITY.

* THESE STATIONS ARE NOT UNDER NWS QUALITY CONTROL. THEY ALSO MAY NOT
  REPORT WEATHER SUCH AS PRECIPITATION OR FOG.

ILZ005-006-012>014-019>023-250100-
NORTHEAST ILLINOIS

CITY           SKY/WX    TMP DP  RH WIND       PRES   REMARKS
OHARE          CLOUDY    47  25  42 NE14      29.94R
6HR MIN TEMP:  47; 6HR MAX TEMP:  56; 6HR PCP: TRACE;

MIDWAY         CLOUDY    51  25  36 NE12      29.93S
6HR MIN TEMP:  50; 6HR MAX TEMP:  60;

AURORA         CLOUDY    52  23  32 NE13      29.91R
6HR MIN TEMP:  52; 6HR MAX TEMP:  63;

LANSING*       CLOUDY    49  20  32 NE16      29.92S
JOLIET*        CLOUDY    54  23  29 NE10      29.92R
WAUKEGAN       LGT RAIN  41  34  76 VRB5      29.95F
6HR MIN TEMP:  41; 6HR MAX TEMP:  48; 6HR PCP:  0.06;

DUPAGE AIRPORT CLOUDY    48  27  44 NE10      29.93R
6HR MIN TEMP:  48; 6HR MAX TEMP:  60;

WHEELING       LGT RAIN  44  29  55 NE7       29.96R
6HR MIN TEMP:  44; 6HR MAX TEMP:  53; 6HR PCP:  0.02;

KANKAKEE*      CLOUDY    59  30  33 S5        29.90R
MORRIS*        CLOUDY    59  27  29 E5        29.88R
LEWIS AIRPORT* CLOUDY    51  18  27 E12G23    29.92R
NORTHERLY IS     N/A     44  30  58 NE17        N/A
$$

WIZ051-052-058>065-066-070>072-250100-
SOUTHEAST WISCONSIN

CITY           SKY/WX    TMP DP  RH WIND       PRES   REMARKS
MILWAUKEE      CLOUDY    39  32  76 E7        29.97F
6HR MIN TEMP:  39; 6HR MAX TEMP:  48; 6HR PCP:  0.13;

KENOSHA*       RAIN      40  35  83 E12       29.97F
RACINE*        LGT RAIN  40  34  79 E5        29.99F
BURLINGTON     MIX PCPN  39  34  82 E7        29.95F
WAUKESHA       CLOUDY    37  32  81 E7        29.98S
WEST BEND      LGT RAIN  37  32  81 E3        29.97F
$$

INZ001>003-010>013-019-020-250100-
NORTHWEST INDIANA

CITY           SKY/WX    TMP DP  RH WIND       PRES   REMARKS
GARY*          CLOUDY    48  23  37 E12G26    29.94R
MICHIGAN CITY* NOT AVBL
RENSSELAER*    NOT AVBL
VALPARAISO     CLOUDY    55  26  32 NE9       29.92S
$$

LMZ740>746-250100-
SOUTHERN LAKE MICHIGAN

STATION/POSITION TIME  SKY/WX   TEMP WIND        PRES    VSBY
                                AIR  DIR/SP/G
                 (UTC)          (F)  (DEG/KT/KT) (MB)    (MI)
HARRISON CRIB    0000            42   40/ 20/ 22   N/A
BURNHAM HARBOR   0000            44   30/ 14/ 15   N/A
CALUMET HARBOR   2300            46   40/ 10/ 12   N/A
BURNS HARBOR     2300            48   70/ 18/ 20 1013.5
MICHIGAN CITY    0000            47   40/ 19/ 21   N/A
$$

ABBREVIATIONS USED IN REMARKS
   TC - TEMPERATURE IN CELSIUS
  WCI - WIND CHILL INDEX
   HX - HEAT INDEX
  VSB - VISIBILITY
$$



USA.gov is the U.S. government's official web portal to all federal, state and local government web resources and services.